owner,sensor,date,latitude,longitude,air_pressure(mBar),qcFlag 
SCCF RECON,ioos:station:SCCF:16:1,2019-03-01T19:15:00Z,26.4345,-81.9647,1018.6,1111122 
SCCF RECON,ioos:station:SCCF:16:1,2019-03-01T20:15:00Z,26.4345,-81.9647,1018.4,1111122 
SCCF RECON,ioos:station:SCCF:16:1,2019-03-01T21:15:00Z,26.4345,-81.9647,1018.4,1111122 
SCCF RECON,ioos:station:SCCF:16:1,2019-03-01T22:15:00Z,26.4345,-81.9647,1018.1,1111122 
SCCF RECON,ioos:station:SCCF:16:1,2019-03-02T05:15:00Z,26.4345,-81.9647,1019.9,1111122 
SCCF RECON,ioos:station:SCCF:16:1,2019-03-02T06:15:00Z,26.4345,-81.9647,1019.6,1111122 
SCCF RECON,ioos:station:SCCF:16:1,2019-03-02T07:15:00Z,26.4345,-81.9647,1019.6,1111122 
SCCF RECON,ioos:station:SCCF:16:1,2019-03-02T08:15:00Z,26.4345,-81.9647,1018.7,1111122 
SCCF RECON,ioos:station:SCCF:16:1,2019-03-02T09:15:00Z,26.4345,-81.9647,1018.3,1111122 
SCCF RECON,ioos:station:SCCF:16:1,2019-03-02T10:15:00Z,26.4345,-81.9647,1018.6,1111122 
SCCF RECON,ioos:station:SCCF:16:1,2019-03-02T11:15:00Z,26.4345,-81.9647,1019.6,1111122 
SCCF RECON,ioos:station:SCCF:16:1,2019-03-02T12:15:00Z,26.4345,-81.9647,1019.6,1111122 
SCCF RECON,ioos:station:SCCF:16:1,2019-03-02T13:15:00Z,26.4345,-81.9647,1020.1,1111122 
SCCF RECON,ioos:station:SCCF:16:1,2019-03-02T14:15:00Z,26.4345,-81.9647,1020.2,1111122 
SCCF RECON,ioos:station:SCCF:16:1,2019-03-02T15:15:00Z,26.4345,-81.9647,1020.1,1111122 
SCCF RECON,ioos:station:SCCF:16:1,2019-03-02T16:15:00Z,26.4345,-81.9647,1020.2,1111122 
SCCF RECON,ioos:station:SCCF:16:1,2019-03-02T17:15:00Z,26.4345,-81.9647,1019.5,1111122 
SCCF RECON,ioos:station:SCCF:16:1,2019-03-02T18:15:00Z,26.4345,-81.9647,1018.9,1111122 
SCCF RECON,ioos:station:SCCF:16:1,2019-03-02T19:15:00Z,26.4345,-81.9647,1017.9,1111122 
SCCF RECON,ioos:station:SCCF:16:1,2019-03-02T20:15:00Z,26.4345,-81.9647,1017.3,1111122 
SCCF RECON,ioos:station:SCCF:16:1,2019-03-02T21:15:00Z,26.4345,-81.9647,1017.4,1111122 
SCCF RECON,ioos:station:SCCF:16:1,2019-03-02T22:15:00Z,26.4345,-81.9647,1017.3,1111122 
SCCF RECON,ioos:station:SCCF:16:1,2019-03-03T05:15:00Z,26.4345,-81.9647,1018.2,1111122 
SCCF RECON,ioos:station:SCCF:16:1,2019-03-03T06:15:00Z,26.4345,-81.9647,1017.8,1111122 
SCCF RECON,ioos:station:SCCF:16:1,2019-03-03T07:15:00Z,26.4345,-81.9647,1017.1,1111122 
SCCF RECON,ioos:station:SCCF:16:1,2019-03-03T08:15:00Z,26.4345,-81.9647,1016.6,1111122 
SCCF RECON,ioos:station:SCCF:16:1,2019-03-03T09:15:00Z,26.4345,-81.9647,1016.3,1111122 
SCCF RECON,ioos:station:SCCF:16:1,2019-03-03T10:15:00Z,26.4345,-81.9647,1016.0,1111122 
SCCF RECON,ioos:station:SCCF:16:1,2019-03-03T11:15:00Z,26.4345,-81.9647,1016.3,1111122 
SCCF RECON,ioos:station:SCCF:16:1,2019-03-03T12:15:00Z,26.4345,-81.9647,1016.6,1111122 
SCCF RECON,ioos:station:SCCF:16:1,2019-03-03T13:15:00Z,26.4345,-81.9647,1016.9,1111122 
SCCF RECON,ioos:station:SCCF:16:1,2019-03-03T14:15:00Z,26.4345,-81.9647,1017.1,1111122 
SCCF RECON,ioos:station:SCCF:16:1,2019-03-03T15:15:00Z,26.4345,-81.9647,1017.4,1111122 
SCCF RECON,ioos:station:SCCF:16:1,2019-03-03T16:15:00Z,26.4345,-81.9647,1017.2,1111122 
SCCF RECON,ioos:station:SCCF:16:1,2019-03-03T17:15:00Z,26.4345,-81.9647,1016.3,1111122 
SCCF RECON,ioos:station:SCCF:16:1,2019-03-03T18:15:00Z,26.4345,-81.9647,1014.9,1111122 
SCCF RECON,ioos:station:SCCF:16:1,2019-03-03T19:15:00Z,26.4345,-81.9647,1013.7,1111122 
SCCF RECON,ioos:station:SCCF:16:1,2019-03-03T20:15:00Z,26.4345,-81.9647,1013.1,1111122 
SCCF RECON,ioos:station:SCCF:16:1,2019-03-03T21:15:00Z,26.4345,-81.9647,1012.7,1111122 
SCCF RECON,ioos:station:SCCF:16:1,2019-03-03T22:15:00Z,26.4345,-81.9647,1012.5,1111122 
SCCF RECON,ioos:station:SCCF:16:1,2019-03-04T05:15:00Z,26.4345,-81.9647,1014.2,1111122 
SCCF RECON,ioos:station:SCCF:16:1,2019-03-04T06:15:00Z,26.4345,-81.9647,1013.8,1111122 
SCCF RECON,ioos:station:SCCF:16:1,2019-03-04T07:15:00Z,26.4345,-81.9647,1013.2,1111122 
SCCF RECON,ioos:station:SCCF:16:1,2019-03-04T08:15:00Z,26.4345,-81.9647,1012.5,1111122 
SCCF RECON,ioos:station:SCCF:16:1,2019-03-04T09:15:00Z,26.4345,-81.9647,1012.9,1111122 
SCCF RECON,ioos:station:SCCF:16:1,2019-03-04T10:15:00Z,26.4345,-81.9647,1013.3,1111122 
SCCF RECON,ioos:station:SCCF:16:1,2019-03-04T11:15:00Z,26.4345,-81.9647,1014.2,1111122 
SCCF RECON,ioos:station:SCCF:16:1,2019-03-04T12:15:00Z,26.4345,-81.9647,1014.8,1111122 
SCCF RECON,ioos:station:SCCF:16:1,2019-03-04T13:15:00Z,26.4345,-81.9647,1015.3,1111122 
SCCF RECON,ioos:station:SCCF:16:1,2019-03-04T14:15:00Z,26.4345,-81.9647,1015.6,1111122 
SCCF RECON,ioos:station:SCCF:16:1,2019-03-04T15:15:00Z,26.4345,-81.9647,1015.6,1111122 
SCCF RECON,ioos:station:SCCF:16:1,2019-03-04T16:15:00Z,26.4345,-81.9647,1015.6,1111122 
SCCF RECON,ioos:station:SCCF:16:1,2019-03-04T17:15:00Z,26.4345,-81.9647,1015.3,1111122 
SCCF RECON,ioos:station:SCCF:16:1,2019-03-04T18:15:00Z,26.4345,-81.9647,1014.6,1111122 
SCCF RECON,ioos:station:SCCF:16:1,2019-03-04T19:15:00Z,26.4345,-81.9647,1014.3,1111122 
SCCF RECON,ioos:station:SCCF:16:1,2019-03-04T20:15:00Z,26.4345,-81.9647,1014.1,1111122 
SCCF RECON,ioos:station:SCCF:16:1,2019-03-04T21:15:00Z,26.4345,-81.9647,1014.1,1111122 
SCCF RECON,ioos:station:SCCF:16:1,2019-03-04T22:15:00Z,26.4345,-81.9647,1014.5,1111122 
SCCF RECON,ioos:station:SCCF:16:1,2019-03-05T05:15:00Z,26.4345,-81.9647,1016.3,1111122 
SCCF RECON,ioos:station:SCCF:16:1,2019-03-05T06:15:00Z,26.4345,-81.9647,1016.5,1111122 
SCCF RECON,ioos:station:SCCF:16:1,2019-03-05T07:15:00Z,26.4345,-81.9647,1015.5,1111122 
SCCF RECON,ioos:station:SCCF:16:1,2019-03-05T08:15:00Z,26.4345,-81.9647,1014.8,1111122 
SCCF RECON,ioos:station:SCCF:16:1,2019-03-05T09:15:00Z,26.4345,-81.9647,1015.3,1111122 
SCCF RECON,ioos:station:SCCF:16:1,2019-03-05T10:15:00Z,26.4345,-81.9647,1016.0,1111122 
SCCF RECON,ioos:station:SCCF:16:1,2019-03-05T11:15:00Z,26.4345,-81.9647,1016.3,1111122 
SCCF RECON,ioos:station:SCCF:16:1,2019-03-05T12:15:00Z,26.4345,-81.9647,1016.9,1111122 
SCCF RECON,ioos:station:SCCF:16:1,2019-03-05T13:15:00Z,26.4345,-81.9647,1017.1,1111122 
SCCF RECON,ioos:station:SCCF:16:1,2019-03-05T14:15:00Z,26.4345,-81.9647,1017.6,1111122 
SCCF RECON,ioos:station:SCCF:16:1,2019-03-05T15:15:00Z,26.4345,-81.9647,1018.4,1111122 
SCCF RECON,ioos:station:SCCF:16:1,2019-03-05T16:15:00Z,26.4345,-81.9647,1018.6,1111122 
SCCF RECON,ioos:station:SCCF:16:1,2019-03-05T17:15:00Z,26.4345,-81.9647,1018.4,1111122 
SCCF RECON,ioos:station:SCCF:16:1,2019-03-05T18:15:00Z,26.4345,-81.9647,1018.3,1111122 
SCCF RECON,ioos:station:SCCF:16:1,2019-03-05T19:15:00Z,26.4345,-81.9647,1017.6,1111122 
SCCF RECON,ioos:station:SCCF:16:1,2019-03-05T20:15:00Z,26.4345,-81.9647,1017.3,1111122 
SCCF RECON,ioos:station:SCCF:16:1,2019-03-05T22:15:00Z,26.4345,-81.9647,1017.9,1111122 
SCCF RECON,ioos:station:SCCF:16:1,2019-03-06T05:15:00Z,26.4345,-81.9647,1022.5,1111122 
SCCF RECON,ioos:station:SCCF:16:1,2019-03-06T06:15:00Z,26.4345,-81.9647,1022.4,1111122 
SCCF RECON,ioos:station:SCCF:16:1,2019-03-06T07:15:00Z,26.4345,-81.9647,1022.5,1111122 
SCCF RECON,ioos:station:SCCF:16:1,2019-03-06T08:15:00Z,26.4345,-81.9647,1022.4,1111122 
SCCF RECON,ioos:station:SCCF:16:1,2019-03-06T09:15:00Z,26.4345,-81.9647,1022.6,1111122 
SCCF RECON,ioos:station:SCCF:16:1,2019-03-06T10:15:00Z,26.4345,-81.9647,1023.5,1111122 
SCCF RECON,ioos:station:SCCF:16:1,2019-03-06T11:15:00Z,26.4345,-81.9647,1024.0,1111122 
SCCF RECON,ioos:station:SCCF:16:1,2019-03-06T12:15:00Z,26.4345,-81.9647,1024.5,1111122 
SCCF RECON,ioos:station:SCCF:16:1,2019-03-06T13:15:00Z,26.4345,-81.9647,1025.6,1111122 
SCCF RECON,ioos:station:SCCF:16:1,2019-03-06T14:15:00Z,26.4345,-81.9647,1025.9,1111122 
SCCF RECON,ioos:station:SCCF:16:1,2019-03-06T15:15:00Z,26.4345,-81.9647,1026.3,1111122 
SCCF RECON,ioos:station:SCCF:16:1,2019-03-06T16:15:00Z,26.4345,-81.9647,1026.6,1111122 
SCCF RECON,ioos:station:SCCF:16:1,2019-03-06T17:15:00Z,26.4345,-81.9647,1026.1,1111122 
SCCF RECON,ioos:station:SCCF:16:1,2019-03-06T18:15:00Z,26.4345,-81.9647,1025.1,1111122 
SCCF RECON,ioos:station:SCCF:16:1,2019-03-06T19:15:00Z,26.4345,-81.9647,1024.3,1111122 
SCCF RECON,ioos:station:SCCF:16:1,2019-03-06T20:15:00Z,26.4345,-81.9647,1023.7,1111122 
SCCF RECON,ioos:station:SCCF:16:1,2019-03-06T21:15:00Z,26.4345,-81.9647,1023.3,1111122 
SCCF RECON,ioos:station:SCCF:16:1,2019-03-06T22:15:00Z,26.4345,-81.9647,1023.8,1111122 
SCCF RECON,ioos:station:SCCF:16:1,2019-03-07T05:15:00Z,26.4345,-81.9647,1026.2,1111122 
SCCF RECON,ioos:station:SCCF:16:1,2019-03-07T06:15:00Z,26.4345,-81.9647,1025.7,1111122 
SCCF RECON,ioos:station:SCCF:16:1,2019-03-07T07:15:00Z,26.4345,-81.9647,1024.8,1111122 
SCCF RECON,ioos:station:SCCF:16:1,2019-03-07T08:15:00Z,26.4345,-81.9647,1024.3,1111122 
SCCF RECON,ioos:station:SCCF:16:1,2019-03-07T09:15:00Z,26.4345,-81.9647,1024.2,1111122 
SCCF RECON,ioos:station:SCCF:16:1,2019-03-07T10:15:00Z,26.4345,-81.9647,1024.2,1111122 
SCCF RECON,ioos:station:SCCF:16:1,2019-03-07T11:15:00Z,26.4345,-81.9647,1025.0,1111122 
SCCF RECON,ioos:station:SCCF:16:1,2019-03-07T12:15:00Z,26.4345,-81.9647,1025.3,1111122 
SCCF RECON,ioos:station:SCCF:16:1,2019-03-07T13:15:00Z,26.4345,-81.9647,1026.0,1111122 
SCCF RECON,ioos:station:SCCF:16:1,2019-03-07T14:15:00Z,26.4345,-81.9647,1025.6,1111122 
SCCF RECON,ioos:station:SCCF:16:1,2019-03-07T15:15:00Z,26.4345,-81.9647,1025.8,1111122 
SCCF RECON,ioos:station:SCCF:16:1,2019-03-07T16:15:00Z,26.4345,-81.9647,1025.8,1111122 
SCCF RECON,ioos:station:SCCF:16:1,2019-03-07T17:15:00Z,26.4345,-81.9647,1025.1,1111122 
SCCF RECON,ioos:station:SCCF:16:1,2019-03-07T18:15:00Z,26.4345,-81.9647,1024.0,1111122 
SCCF RECON,ioos:station:SCCF:16:1,2019-03-07T19:15:00Z,26.4345,-81.9647,1022.7,1111122 
SCCF RECON,ioos:station:SCCF:16:1,2019-03-07T20:15:00Z,26.4345,-81.9647,1022.0,1111122 
SCCF RECON,ioos:station:SCCF:16:1,2019-03-07T21:15:00Z,26.4345,-81.9647,1021.7,1111122 
SCCF RECON,ioos:station:SCCF:16:1,2019-03-07T22:15:00Z,26.4345,-81.9647,1021.2,1111122 
SCCF RECON,ioos:station:SCCF:16:1,2019-03-08T05:15:00Z,26.4345,-81.9647,1022.8,1111122 
SCCF RECON,ioos:station:SCCF:16:1,2019-03-08T06:15:00Z,26.4345,-81.9647,1022.4,1111122 
SCCF RECON,ioos:station:SCCF:16:1,2019-03-08T07:15:00Z,26.4345,-81.9647,1021.7,1111122 
SCCF RECON,ioos:station:SCCF:16:1,2019-03-08T08:15:00Z,26.4345,-81.9647,1021.4,1111122 
SCCF RECON,ioos:station:SCCF:16:1,2019-03-08T09:15:00Z,26.4345,-81.9647,1021.2,1111122 
SCCF RECON,ioos:station:SCCF:16:1,2019-03-08T10:15:00Z,26.4345,-81.9647,1021.0,1111122 
SCCF RECON,ioos:station:SCCF:16:1,2019-03-08T11:15:00Z,26.4345,-81.9647,1021.0,1111122 
SCCF RECON,ioos:station:SCCF:16:1,2019-03-08T12:15:00Z,26.4345,-81.9647,1021.2,1111122 
SCCF RECON,ioos:station:SCCF:16:1,2019-03-08T13:15:00Z,26.4345,-81.9647,1022.0,1111122 
SCCF RECON,ioos:station:SCCF:16:1,2019-03-08T16:15:00Z,26.4345,-81.9647,1022.8,1111122 
SCCF RECON,ioos:station:SCCF:16:1,2019-03-08T17:15:00Z,26.4345,-81.9647,1021.8,1111122 
SCCF RECON,ioos:station:SCCF:16:1,2019-03-08T18:15:00Z,26.4345,-81.9647,1020.5,1111122 
SCCF RECON,ioos:station:SCCF:16:1,2019-03-08T19:15:00Z,26.4345,-81.9647,1019.7,1111122 
SCCF RECON,ioos:station:SCCF:16:1,2019-03-08T20:15:00Z,26.4345,-81.9647,1019.1,1111122 
SCCF RECON,ioos:station:SCCF:16:1,2019-03-08T21:15:00Z,26.4345,-81.9647,1018.7,1111122 
SCCF RECON,ioos:station:SCCF:16:1,2019-03-08T22:15:00Z,26.4345,-81.9647,1018.7,1111122 
SCCF RECON,ioos:station:SCCF:16:1,2019-03-09T05:15:00Z,26.4345,-81.9647,1018.7,1111122 
SCCF RECON,ioos:station:SCCF:16:1,2019-03-09T06:15:00Z,26.4345,-81.9647,1018.6,1111122 
SCCF RECON,ioos:station:SCCF:16:1,2019-03-09T07:15:00Z,26.4345,-81.9647,1018.3,1111122 
SCCF RECON,ioos:station:SCCF:16:1,2019-03-09T08:15:00Z,26.4345,-81.9647,1017.6,1111122 
SCCF RECON,ioos:station:SCCF:16:1,2019-03-09T09:15:00Z,26.4345,-81.9647,1017.4,1111122 
SCCF RECON,ioos:station:SCCF:16:1,2019-03-09T10:15:00Z,26.4345,-81.9647,1017.9,1111122 
SCCF RECON,ioos:station:SCCF:16:1,2019-03-09T11:15:00Z,26.4345,-81.9647,1018.5,1111122 
SCCF RECON,ioos:station:SCCF:16:1,2019-03-09T12:15:00Z,26.4345,-81.9647,1018.5,1111122 
SCCF RECON,ioos:station:SCCF:16:1,2019-03-09T13:15:00Z,26.4345,-81.9647,1019.2,1111122 
SCCF RECON,ioos:station:SCCF:16:1,2019-03-09T14:15:00Z,26.4345,-81.9647,1019.1,1111122 
SCCF RECON,ioos:station:SCCF:16:1,2019-03-09T15:15:00Z,26.4345,-81.9647,1019.5,1111122 
SCCF RECON,ioos:station:SCCF:16:1,2019-03-09T16:15:00Z,26.4345,-81.9647,1019.0,1111122 
SCCF RECON,ioos:station:SCCF:16:1,2019-03-09T17:15:00Z,26.4345,-81.9647,1018.6,1111122 
SCCF RECON,ioos:station:SCCF:16:1,2019-03-09T18:15:00Z,26.4345,-81.9647,1017.6,1111122 
SCCF RECON,ioos:station:SCCF:16:1,2019-03-09T19:15:00Z,26.4345,-81.9647,1016.8,1111122 
SCCF RECON,ioos:station:SCCF:16:1,2019-03-09T20:15:00Z,26.4345,-81.9647,1016.4,1111122 
SCCF RECON,ioos:station:SCCF:16:1,2019-03-09T21:15:00Z,26.4345,-81.9647,1016.1,1111122 
SCCF RECON,ioos:station:SCCF:16:1,2019-03-09T22:15:00Z,26.4345,-81.9647,1016.4,1111122 
SCCF RECON,ioos:station:SCCF:16:1,2019-03-10T05:15:00Z,26.4345,-81.9647,1019.4,1111122 
SCCF RECON,ioos:station:SCCF:16:1,2019-03-10T06:15:00Z,26.4345,-81.9647,1018.9,1111122 
SCCF RECON,ioos:station:SCCF:16:1,2019-03-10T07:15:00Z,26.4345,-81.9647,1018.1,1111122 
SCCF RECON,ioos:station:SCCF:16:1,2019-03-10T08:15:00Z,26.4345,-81.9647,1017.4,1111122 
SCCF RECON,ioos:station:SCCF:16:1,2019-03-10T09:15:00Z,26.4345,-81.9647,1017.6,1111122 
SCCF RECON,ioos:station:SCCF:16:1,2019-03-10T10:15:00Z,26.4345,-81.9647,1018.3,1111122 
SCCF RECON,ioos:station:SCCF:16:1,2019-03-10T11:15:00Z,26.4345,-81.9647,1018.7,1111122 
SCCF RECON,ioos:station:SCCF:16:1,2019-03-10T12:15:00Z,26.4345,-81.9647,1019.7,1111122 
SCCF RECON,ioos:station:SCCF:16:1,2019-03-10T13:15:00Z,26.4345,-81.9647,1020.5,1111122 
SCCF RECON,ioos:station:SCCF:16:1,2019-03-10T14:15:00Z,26.4345,-81.9647,1020.9,1111122 
SCCF RECON,ioos:station:SCCF:16:1,2019-03-10T15:15:00Z,26.4345,-81.9647,1020.5,1111122 
SCCF RECON,ioos:station:SCCF:16:1,2019-03-10T16:15:00Z,26.4345,-81.9647,1021.2,1111122 
SCCF RECON,ioos:station:SCCF:16:1,2019-03-10T17:15:00Z,26.4345,-81.9647,1020.5,1111122 
SCCF RECON,ioos:station:SCCF:16:1,2019-03-10T18:15:00Z,26.4345,-81.9647,1019.7,1111122 
SCCF RECON,ioos:station:SCCF:16:1,2019-03-10T19:15:00Z,26.4345,-81.9647,1019.1,1111122 
SCCF RECON,ioos:station:SCCF:16:1,2019-03-10T20:15:00Z,26.4345,-81.9647,1019.1,1111122 
SCCF RECON,ioos:station:SCCF:16:1,2019-03-10T21:15:00Z,26.4345,-81.9647,1019.6,1111122 
SCCF RECON,ioos:station:SCCF:16:1,2019-03-11T04:15:00Z,26.4345,-81.9647,1021.3,1111122 
SCCF RECON,ioos:station:SCCF:16:1,2019-03-11T05:15:00Z,26.4345,-81.9647,1021.2,1111122 
SCCF RECON,ioos:station:SCCF:16:1,2019-03-11T06:15:00Z,26.4345,-81.9647,1021.0,1111122 
SCCF RECON,ioos:station:SCCF:16:1,2019-03-11T07:15:00Z,26.4345,-81.9647,1020.4,1111122 
SCCF RECON,ioos:station:SCCF:16:1,2019-03-11T08:15:00Z,26.4345,-81.9647,1020.4,1111122 
SCCF RECON,ioos:station:SCCF:16:1,2019-03-11T09:15:00Z,26.4345,-81.9647,1020.3,1111122 
SCCF RECON,ioos:station:SCCF:16:1,2019-03-11T10:15:00Z,26.4345,-81.9647,1020.7,1111122 
SCCF RECON,ioos:station:SCCF:16:1,2019-03-11T11:15:00Z,26.4345,-81.9647,1020.9,1111122 
SCCF RECON,ioos:station:SCCF:16:1,2019-03-11T12:15:00Z,26.4345,-81.9647,1021.9,1111122 
SCCF RECON,ioos:station:SCCF:16:1,2019-03-11T13:15:00Z,26.4345,-81.9647,1022.2,1111122 
SCCF RECON,ioos:station:SCCF:16:1,2019-03-11T14:15:00Z,26.4345,-81.9647,1022.5,1111122 
SCCF RECON,ioos:station:SCCF:16:1,2019-03-11T15:15:00Z,26.4345,-81.9647,1022.5,1111122 
SCCF RECON,ioos:station:SCCF:16:1,2019-03-11T16:15:00Z,26.4345,-81.9647,1022.3,1111122 
SCCF RECON,ioos:station:SCCF:16:1,2019-03-11T17:15:00Z,26.4345,-81.9647,1022.0,1111122 
SCCF RECON,ioos:station:SCCF:16:1,2019-03-11T18:15:00Z,26.4345,-81.9647,1021.1,1111122 
SCCF RECON,ioos:station:SCCF:16:1,2019-03-11T19:15:00Z,26.4345,-81.9647,1020.2,1111122 
SCCF RECON,ioos:station:SCCF:16:1,2019-03-11T20:15:00Z,26.4345,-81.9647,1019.7,1111122 
SCCF RECON,ioos:station:SCCF:16:1,2019-03-11T21:15:00Z,26.4345,-81.9647,1019.5,1111122 
SCCF RECON,ioos:station:SCCF:16:1,2019-03-11T22:15:00Z,26.4345,-81.9647,1019.7,1111122 
SCCF RECON,ioos:station:SCCF:16:1,2019-03-12T04:15:00Z,26.4345,-81.9647,1021.3,1111122 
SCCF RECON,ioos:station:SCCF:16:1,2019-03-12T05:15:00Z,26.4345,-81.9647,1020.7,1111122 
SCCF RECON,ioos:station:SCCF:16:1,2019-03-12T06:15:00Z,26.4345,-81.9647,1020.4,1111122 
SCCF RECON,ioos:station:SCCF:16:1,2019-03-12T07:15:00Z,26.4345,-81.9647,1020.2,1111122 
SCCF RECON,ioos:station:SCCF:16:1,2019-03-12T08:15:00Z,26.4345,-81.9647,1019.1,1111122 
SCCF RECON,ioos:station:SCCF:16:1,2019-03-12T09:15:00Z,26.4345,-81.9647,1018.9,1111122 
SCCF RECON,ioos:station:SCCF:16:1,2019-03-12T10:15:00Z,26.4345,-81.9647,1019.4,1111122 
SCCF RECON,ioos:station:SCCF:16:1,2019-03-12T11:15:00Z,26.4345,-81.9647,1019.7,1111122 
SCCF RECON,ioos:station:SCCF:16:1,2019-03-12T12:15:00Z,26.4345,-81.9647,1020.2,1111122 
SCCF RECON,ioos:station:SCCF:16:1,2019-03-12T13:15:00Z,26.4345,-81.9647,1020.7,1111122 
SCCF RECON,ioos:station:SCCF:16:1,2019-03-12T14:15:00Z,26.4345,-81.9647,1021.0,1111122 
SCCF RECON,ioos:station:SCCF:16:1,2019-03-12T15:15:00Z,26.4345,-81.9647,1020.8,1111122 
SCCF RECON,ioos:station:SCCF:16:1,2019-03-12T16:15:00Z,26.4345,-81.9647,1020.7,1111122 
SCCF RECON,ioos:station:SCCF:16:1,2019-03-12T17:15:00Z,26.4345,-81.9647,1019.9,1111122 
SCCF RECON,ioos:station:SCCF:16:1,2019-03-12T18:15:00Z,26.4345,-81.9647,1019.0,1111122 
SCCF RECON,ioos:station:SCCF:16:1,2019-03-12T19:15:00Z,26.4345,-81.9647,1018.2,1111122 
SCCF RECON,ioos:station:SCCF:16:1,2019-03-12T20:15:00Z,26.4345,-81.9647,1018.1,1111122 
SCCF RECON,ioos:station:SCCF:16:1,2019-03-12T21:15:00Z,26.4345,-81.9647,1017.6,1111122 
SCCF RECON,ioos:station:SCCF:16:1,2019-03-12T22:15:00Z,26.4345,-81.9647,1017.8,1111122 
SCCF RECON,ioos:station:SCCF:16:1,2019-03-13T04:15:00Z,26.4345,-81.9647,1019.9,1111122 
SCCF RECON,ioos:station:SCCF:16:1,2019-03-13T05:15:00Z,26.4345,-81.9647,1019.6,1111122 
SCCF RECON,ioos:station:SCCF:16:1,2019-03-13T06:15:00Z,26.4345,-81.9647,1019.4,1111122 
SCCF RECON,ioos:station:SCCF:16:1,2019-03-13T07:15:00Z,26.4345,-81.9647,1018.7,1111122 
SCCF RECON,ioos:station:SCCF:16:1,2019-03-13T08:15:00Z,26.4345,-81.9647,1018.3,1111122 
SCCF RECON,ioos:station:SCCF:16:1,2019-03-13T09:15:00Z,26.4345,-81.9647,1018.0,1111122 
SCCF RECON,ioos:station:SCCF:16:1,2019-03-13T10:15:00Z,26.4345,-81.9647,1017.8,1111122 
SCCF RECON,ioos:station:SCCF:16:1,2019-03-13T11:15:00Z,26.4345,-81.9647,1018.3,1111122 
SCCF RECON,ioos:station:SCCF:16:1,2019-03-13T12:15:00Z,26.4345,-81.9647,1018.6,1111122 
SCCF RECON,ioos:station:SCCF:16:1,2019-03-13T13:15:00Z,26.4345,-81.9647,1019.2,1111122 
SCCF RECON,ioos:station:SCCF:16:1,2019-03-13T14:15:00Z,26.4345,-81.9647,1019.1,1111122 
SCCF RECON,ioos:station:SCCF:16:1,2019-03-13T15:15:00Z,26.4345,-81.9647,1019.1,1111122 
SCCF RECON,ioos:station:SCCF:16:1,2019-03-13T16:15:00Z,26.4345,-81.9647,1019.0,1111122 
SCCF RECON,ioos:station:SCCF:16:1,2019-03-13T17:15:00Z,26.4345,-81.9647,1018.4,1111122 
SCCF RECON,ioos:station:SCCF:16:1,2019-03-13T18:15:00Z,26.4345,-81.9647,1017.2,1111122 
SCCF RECON,ioos:station:SCCF:16:1,2019-03-13T19:15:00Z,26.4345,-81.9647,1016.6,1111122 
SCCF RECON,ioos:station:SCCF:16:1,2019-03-13T20:15:00Z,26.4345,-81.9647,1016.6,1111122 
SCCF RECON,ioos:station:SCCF:16:1,2019-03-13T21:15:00Z,26.4345,-81.9647,1016.6,1111122 
SCCF RECON,ioos:station:SCCF:16:1,2019-03-13T22:15:00Z,26.4345,-81.9647,1016.8,1111122 
SCCF RECON,ioos:station:SCCF:16:1,2019-03-14T04:15:00Z,26.4345,-81.9647,1019.6,1111122 
SCCF RECON,ioos:station:SCCF:16:1,2019-03-14T05:15:00Z,26.4345,-81.9647,1019.1,1111122 
SCCF RECON,ioos:station:SCCF:16:1,2019-03-14T06:15:00Z,26.4345,-81.9647,1018.6,1111122 
SCCF RECON,ioos:station:SCCF:16:1,2019-03-14T07:15:00Z,26.4345,-81.9647,1018.1,1111122 
SCCF RECON,ioos:station:SCCF:16:1,2019-03-14T08:15:00Z,26.4345,-81.9647,1018.3,1111122 
SCCF RECON,ioos:station:SCCF:16:1,2019-03-14T09:15:00Z,26.4345,-81.9647,1017.1,1111122 
SCCF RECON,ioos:station:SCCF:16:1,2019-03-14T10:15:00Z,26.4345,-81.9647,1017.4,1111122 
SCCF RECON,ioos:station:SCCF:16:1,2019-03-14T11:15:00Z,26.4345,-81.9647,1017.9,1111122 
SCCF RECON,ioos:station:SCCF:16:1,2019-03-14T12:15:00Z,26.4345,-81.9647,1018.6,1111122 
SCCF RECON,ioos:station:SCCF:16:1,2019-03-14T13:15:00Z,26.4345,-81.9647,1019.1,1111122 
SCCF RECON,ioos:station:SCCF:16:1,2019-03-14T14:15:00Z,26.4345,-81.9647,1019.4,1111122 
SCCF RECON,ioos:station:SCCF:16:1,2019-03-14T15:15:00Z,26.4345,-81.9647,1019.2,1111122 
SCCF RECON,ioos:station:SCCF:16:1,2019-03-14T16:15:00Z,26.4345,-81.9647,1019.5,1111122 
SCCF RECON,ioos:station:SCCF:16:1,2019-03-14T17:15:00Z,26.4345,-81.9647,1018.9,1111122 
SCCF RECON,ioos:station:SCCF:16:1,2019-03-14T18:15:00Z,26.4345,-81.9647,1018.2,1111122 
SCCF RECON,ioos:station:SCCF:16:1,2019-03-14T19:15:00Z,26.4345,-81.9647,1017.9,1111122 
SCCF RECON,ioos:station:SCCF:16:1,2019-03-14T20:15:00Z,26.4345,-81.9647,1017.2,1111122 
SCCF RECON,ioos:station:SCCF:16:1,2019-03-14T21:15:00Z,26.4345,-81.9647,1017.0,1111122 
SCCF RECON,ioos:station:SCCF:16:1,2019-03-14T22:15:00Z,26.4345,-81.9647,1017.0,1111122 
SCCF RECON,ioos:station:SCCF:16:1,2019-03-15T04:15:00Z,26.4345,-81.9647,1018.7,1111122 
SCCF RECON,ioos:station:SCCF:16:1,2019-03-15T05:15:00Z,26.4345,-81.9647,1018.7,1111122 
SCCF RECON,ioos:station:SCCF:16:1,2019-03-15T06:15:00Z,26.4345,-81.9647,1018.7,1111122 
SCCF RECON,ioos:station:SCCF:16:1,2019-03-15T07:15:00Z,26.4345,-81.9647,1018.4,1111122 
SCCF RECON,ioos:station:SCCF:16:1,2019-03-15T08:15:00Z,26.4345,-81.9647,1018.1,1111122 
SCCF RECON,ioos:station:SCCF:16:1,2019-03-15T09:15:00Z,26.4345,-81.9647,1018.1,1111122 
SCCF RECON,ioos:station:SCCF:16:1,2019-03-15T10:15:00Z,26.4345,-81.9647,1018.6,1111122 
SCCF RECON,ioos:station:SCCF:16:1,2019-03-15T11:15:00Z,26.4345,-81.9647,1018.7,1111122 
SCCF RECON,ioos:station:SCCF:16:1,2019-03-15T12:15:00Z,26.4345,-81.9647,1019.4,1111122 
SCCF RECON,ioos:station:SCCF:16:1,2019-03-15T13:15:00Z,26.4345,-81.9647,1019.8,1111122 
SCCF RECON,ioos:station:SCCF:16:1,2019-03-15T14:15:00Z,26.4345,-81.9647,1019.9,1111122 
SCCF RECON,ioos:station:SCCF:16:1,2019-03-15T15:15:00Z,26.4345,-81.9647,1020.1,1111122 
SCCF RECON,ioos:station:SCCF:16:1,2019-03-15T16:15:00Z,26.4345,-81.9647,1020.0,1111122 
SCCF RECON,ioos:station:SCCF:16:1,2019-03-15T17:15:00Z,26.4345,-81.9647,1019.6,1111122 
SCCF RECON,ioos:station:SCCF:16:1,2019-03-15T18:15:00Z,26.4345,-81.9647,1019.1,1111122 
SCCF RECON,ioos:station:SCCF:16:1,2019-03-15T19:15:00Z,26.4345,-81.9647,1018.2,1111122 
SCCF RECON,ioos:station:SCCF:16:1,2019-03-15T20:15:00Z,26.4345,-81.9647,1017.9,1111122 
SCCF RECON,ioos:station:SCCF:16:1,2019-03-15T21:15:00Z,26.4345,-81.9647,1017.4,1111122 
SCCF RECON,ioos:station:SCCF:16:1,2019-03-15T22:15:00Z,26.4345,-81.9647,1017.8,1111122 
SCCF RECON,ioos:station:SCCF:16:1,2019-03-16T04:15:00Z,26.4345,-81.9647,1018.8,1111122 
SCCF RECON,ioos:station:SCCF:16:1,2019-03-16T05:15:00Z,26.4345,-81.9647,1018.5,1111122 
SCCF RECON,ioos:station:SCCF:16:1,2019-03-16T06:15:00Z,26.4345,-81.9647,1018.3,1111122 
SCCF RECON,ioos:station:SCCF:16:1,2019-03-16T07:15:00Z,26.4345,-81.9647,1018.1,1111122 
SCCF RECON,ioos:station:SCCF:16:1,2019-03-16T08:15:00Z,26.4345,-81.9647,1017.5,1111122 
SCCF RECON,ioos:station:SCCF:16:1,2019-03-16T09:15:00Z,26.4345,-81.9647,1017.6,1111122 
SCCF RECON,ioos:station:SCCF:16:1,2019-03-16T10:15:00Z,26.4345,-81.9647,1017.8,1111122 
SCCF RECON,ioos:station:SCCF:16:1,2019-03-16T11:15:00Z,26.4345,-81.9647,1018.5,1111122 
SCCF RECON,ioos:station:SCCF:16:1,2019-03-16T12:15:00Z,26.4345,-81.9647,1018.9,1111122 
SCCF RECON,ioos:station:SCCF:16:1,2019-03-16T13:15:00Z,26.4345,-81.9647,1019.4,1111122 
SCCF RECON,ioos:station:SCCF:16:1,2019-03-16T14:15:00Z,26.4345,-81.9647,1019.6,1111122 
SCCF RECON,ioos:station:SCCF:16:1,2019-03-16T15:15:00Z,26.4345,-81.9647,1019.9,1111122 
SCCF RECON,ioos:station:SCCF:16:1,2019-03-16T16:15:00Z,26.4345,-81.9647,1019.9,1111122 
SCCF RECON,ioos:station:SCCF:16:1,2019-03-16T17:15:00Z,26.4345,-81.9647,1019.5,1111122 
SCCF RECON,ioos:station:SCCF:16:1,2019-03-16T18:15:00Z,26.4345,-81.9647,1018.9,1111122 